Lid_Strength_Index
1 1 1 1 1 1 1 2 4 6 5 3 2 0 -0 -0 -0 -1 0 1 1 0 1 1 0 -0 -1 -1 -1 -0 -0 -0 0 0 -0 -1 -1 -1
1 1 1 1 1 1 1 1 2 3 5 2 2 1 -0 0 -0 -0 0 1 1 1 1 1 1 0 -0 -0 -0 0 0 0 1 1 0 0 -0 -1
1 1 1 1 1 1 1 1 2 2 4 3 1 0 1 1 0 -0 1 -0 1 1 1 1 1 1 0 0 0 1 1 1 1 1 0 0 0 -0
1 1 1 1 1 1 1 2 2 1 3 4 2 2 1 0 0 0 0 -0 -0 1 2 1 2 2 2 2 2 3 3 3 2 2 1 1 1 -0
1 1 1 1 2 1 1 2 1 1 2 3 3 1 2 2 1 2 1 1 1 1 2 2 2 2 2 3 3 5 5 5 5 4 3 2 1 0
1 1 1 1 1 1 1 1 1 2 2 2 3 2 2 2 2 3 4 3 2 1 1 1 1 1 2 3 3 4 6 6 6 5 4 4 3 2
1 1 1 1 1 1 1 1 1 2 2 3 3 3 3 4 4 3 4 3 2 1 1 1 1 1 2 2 2 3 4 5 5 5 5 5 5 4
2 1 1 1 1 1 2 1 1 2 3 3 3 3 3 2 3 4 4 4 4 1 1 1 0 1 0 0 1 3 4 5 5 5 5 6 5 5
1 1 1 1 1 1 2 2 2 2 1 1 3 3 3 2 2 3 3 4 4 1 1 3 0 1 -0 1 3 4 4 5 5 4 5 5 5 5
1 1 1 1 1 1 1 1 1 1 1 1 1 1 1 0 2 2 2 3 2 1 0 4 1 2 1 1 3 4 4 5 4 5 5 5 5 6
1 1 1 1 3 3 1 2 2 1 3 2 1 3 2 3 2 2 2 3 4 3 1 2 2 2 1 1 2 3 4 5 5 5 5 5 6 7
1 1 3 1 4 7 1 2 2 2 1 1 2 3 2 2 3 1 1 3 3 4 1 2 2 2 3 1 2 2 3 5 5 5 5 6 7 4
2 2 1 6 8 9 5 1 2 1 2 1 1 1 1 1 1 0 0 1 3 3 1 1 2 2 2 3 1 1 1 3 3 5 7 7 7 4
2 1 1 9 10 11 9 6 7 5 1 2 2 2 2 2 1 0 0 -0 0 1 -0 1 2 2 3 3 3 1 2 1 2 3 3 6 7 6
1 3 7 8 8 8 10 9 9 3 2 2 3 2 2 1 0 1 0 -0 -0 -0 -0 0 1 1 2 3 3 2 2 1 1 1 2 3 4 4
4 2 3 5 7 4 4 5 4 2 2 2 2 1 1 1 1 1 2 1 2 2 0 -0 0 1 2 2 2 3 2 3 1 1 1 1 2 3
7 4 2 2 2 2 2 1 1 1 2 2 2 2 2 2 2 1 1 2 3 3 2 1 0 -0 0 1 3 2 2 2 1 1 2 3 2 3
9 5 3 3 3 3 3 2 2 2 2 2 2 2 2 2 2 2 2 2 3 3 3 2 2 2 2 3 4 2 2 2 1 1 1 2 3 2
7 3 3 3 3 2 2 2 3 2 1 2 2 3 3 3 4 3 2 3 3 3 2 2 2 3 5 5 4 7 3 2 2 2 2 3 3 2
5 3 3 3 3 2 2 2 2 2 2 3 3 3 3 3 4 5 4 3 3 4 5 4 4 3 4 5 5 6 9 3 3 3 3 2 3 4
3 3 3 2 3 2 2 2 2 2 2 2 3 3 4 3 4 5 6 7 6 4 6 6 5 5 4 4 6 6 6 8 6 3 3 4 4 4
3 4 3 4 4 4 3 2 3 4 4 4 4 4 4 4 4 4 5 5 5 5 6 6 5 4 4 5 6 7 6 5 7 7 7 5 5 5
2 3 3 3 4 4 4 4 5 4 5 5 5 4 4 4 4 4 5 5 4 5 5 6 5 4 5 5 5 5 5 6 5 6 7 8 7 7